Location: �chenoz-la-M�line
(47.6009°N, 6.1354°E)
Time: 14:13:25
(UTC+00:00)

Cosmos 1980 - Pass Details

Date: 07 December 2021
Orbit: 838 x 848 km, 71.0° (Epoch: 17 January)

Event Time Altitude Azimuth Distance (km) Brightness Sun altitude
Rises 18:08:02 0° 338° (NNW) 3,415 7.0 -23.3°
Reaches altitude 10° 18:12:01 10° 5° (N) 2,479 6.0 -23.9°
Enters shadow 18:12:20 11° 8° (N) 2,431 5.9 -24.0°
